Regional Weather Roundup
Issued by NWS

Home | Current Version | Previous Version | Text Only | Print | Product List | Glossary Off
Versions: 1 2 3 4 5 6 7 8 9 10 11 12 13 14 15 16 17 18 19 20 21 22 23 24 25 26 27 28 29 30 31 32 33 34 35 36 37 38 39 40 41 42 43 44 45 46 47 48 49 50

000
ASUS43 KTOP 261908
RWRKS

WEATHER ROUNDUP FOR KANSAS
NATIONAL WEATHER SERVICE GOODLAND KS
200 PM CDT TUE MAY 26 2015

NOTE:  "FAIR" INDICATES FEW OR NO CLOUDS BELOW 12,000 FEET WITH NO
SIGNIFICANT WEATHER AND/OR OBSTRUCTIONS TO VISIBILITY.

KSZ001>006-013>018-027>032-041>047-262000-
NORTHWEST KANSAS

CITY           SKY/WX    TMP DP  RH WIND       PRES   REMARKS
GOODLAND       PTSUNNY   69  52  54 N10       30.01F
HAYS           PTSUNNY   73  55  53 W12G17    29.95F
RUSSELL        MOSUNNY   74  56  53 NW14      29.93S
$$

KSZ061>065-074>080-084>089-262000-
SOUTHWEST KANSAS

CITY           SKY/WX    TMP DP  RH WIND       PRES   REMARKS
DODGE CITY     SUNNY     74  49  41 VRB5      29.98F
ELKHART          N/A     74  50  43 N8          N/A
GARDEN CITY    MOSUNNY   73  51  46 VRB5G16   29.98F
GREAT BEND     SUNNY     73  55  53 NW13      29.94F
LIBERAL        SUNNY     73  55  53 NE7       30.00F
PRATT          SUNNY     75  52  43 N3        29.97F
$$

KSZ066>073-081>083-090>101-262000-
SOUTHEAST KANSAS

CITY           SKY/WX    TMP DP  RH WIND       PRES   REMARKS
CHANUTE        SUNNY     78  62  57 SW12G22   29.95R
HUTCHINSON     SUNNY     79  55  43 W10       29.94S
MEDICINE LODGE   N/A     82  55  39 NW9       29.93F
NEWTON           N/A    N/A N/A N/A MISG        N/A
PARSONS        MOSUNNY   79  62  56 SW13G20   29.97S
WICHITA INTL   PTSUNNY   78  58  49 W12       29.94R
WICHITA JABRA  MOSUNNY   80  58  46 W15       29.94R
WICHITA MCCONL PTSUNNY   77  57  49 SW13      29.95R
WINFIELD       SUNNY     78  62  57 VRB6      29.96S
$$

KSZ007>012-019>026-033>040-048>060-102>105-262000-
NORTHEAST KANSAS

CITY           SKY/WX    TMP DP  RH WIND       PRES   REMARKS
CONCORDIA      MOSUNNY   71  57  61 W10       29.90S
EMPORIA        MOSUNNY   77  58  51 W15G24    29.92R
LAWRENCE       MOSUNNY   77  59  53 SW22      29.88R
MANHATTAN      PTSUNNY   74  60  61 W12G20    29.89R
MARYSVILLE     PTSUNNY   72  59  64 W14G23    29.87R
OLATHE IND     MOSUNNY   77  58  51 W22G29    29.89R
OLATHE EXE     PTSUNNY   75  57  53 SW21G30   29.88R
SALINA         SUNNY     77  57  50 W14       29.92R
TOPEKA BILLARD MOSUNNY   74  58  57 W22G29    29.88R
TOPEKA FORBES  PTSUNNY   76  60  57 W17G28    29.89R
$$


USA.gov is the U.S. government's official web portal to all federal, state and local government web resources and services.